Location: Grange Rosano
(44.4500°N, 6.9667°E)
Time: 19:27:24
(UTC+00:00)

Cosmos 1674 - Pass Details

Date: 26 May 2022
Orbit: 488 x 509 km, 82.5° (Epoch: 01 July)

Event Time Altitude Azimuth Distance (km) Brightness Sun altitude
Exits shadow 00:12:24 37° 302° (WNW) 799 3.7 -23.7°
Drops below altitude 10° 00:15:29 10° 353° (N) 1,720 6.3 -23.6°
Sets 00:17:44 0° 2° (N) 2,613 7.6 -23.5°
